Wink, TX

3:02 AM CDT on May 30, 2017 (GMT -0500)
Winkler County

Weather History for KINK - October, 2010

Change the Weather History Date:

Tuesday, October 5, 2010

  Actual Average Record
Temperature  
Mean Temperature 70 °F -  
Max Temperature 84 °F 83 °F 100 °F (2007)
Min Temperature 57 °F 56 °F 39 °F (1985)
Cooling Degree Days 6    
Growing Degree Days 20 (Base 50)    
Moisture  
Dew Point 48 °F    
Average Humidity 48    
Maximum Humidity 64    
Minimum Humidity 30    
Precipitation  
Precipitation 0.00 in - - ()
Sea Level Pressure  
Sea Level Pressure 30.09 in    
Wind  
Wind Speed 13 mph (SE)    
Max Wind Speed 22 mph    
Max Gust Speed 28 mph    
Visibility 10 miles    
Events      
Averages and records for this station are not official NWS values.
T = Trace of Precipitation, MM = Missing Value Source: NWS Daily Summary

Daily Weather History Graph

Daily Weather History Graph

Search for Another Location

Airport or City:

Trip Planner

Search our weather history database for the weather conditions in past years. The results will help you decide how hot, cold, wet, or windy it might be!

Date:

Astronomy

Oct. 05, 2010 Rise Set
Actual Time 7:49 AM CDT 7:32 PM CDT
Civil Twilight 7:24 AM CDT 7:56 PM CDT
Nautical Twilight 6:56 AM CDT 8:25 PM CDT
Astronomical Twilight 6:28 AM CDT 8:53 PM CDT
Moon 5:22 AM CDT (10/5) 5:59 PM CDT (10/5)
Length of Visible Light 12h 32m
Length of Day
11h 43m
Waning Crescent, 6% of the Moon is Illuminated
Oct 5
Waning Crescent
Oct 7
New
Oct 14
First Quarter
Oct 22
Full
Oct 30
Last Quarter

Hourly Weather History & Observations

Time (CDT) Temp. Dew Point Humidity Pressure Visibility Wind Dir Wind Speed Gust Speed Precip Events Conditions
12:53 AM 66.0 °F 46.9 °F 50% 30.07 in 10.0 mi SE 10.4 mph - N/A   Clear
1:53 AM 64.0 °F 48.0 °F 56% 30.07 in 10.0 mi SE 8.1 mph - N/A   Clear
2:53 AM 62.1 °F 48.0 °F 60% 30.07 in 10.0 mi ESE 9.2 mph - N/A   Clear
3:53 AM 61.0 °F 46.9 °F 60% 30.06 in 10.0 mi ESE 9.2 mph - N/A   Clear
4:53 AM 60.1 °F 48.0 °F 64% 30.05 in 10.0 mi ESE 12.7 mph - N/A   Clear
5:53 AM 60.1 °F 48.0 °F 64% 30.05 in 10.0 mi ESE 13.8 mph - N/A   Clear
7:53 AM 57.0 °F 41.0 °F 55% 30.09 in 10.0 mi SE 11.5 mph - N/A   Clear
8:53 AM 60.1 °F 42.1 °F 51% 30.11 in 10.0 mi SE 12.7 mph - N/A   Clear
9:53 AM 63.0 °F 44.1 °F 50% 30.13 in 10.0 mi SE 19.6 mph 23.0 mph N/A   Clear
10:53 AM 66.9 °F 46.0 °F 47% 30.13 in 10.0 mi SE 15.0 mph 21.9 mph N/A   Clear
11:53 AM 73.0 °F 48.0 °F 41% 30.13 in 10.0 mi SE 13.8 mph 19.6 mph N/A   Clear
12:53 PM 77.0 °F 48.9 °F 37% 30.12 in 10.0 mi SE 13.8 mph - N/A   Clear
1:53 PM 81.0 °F 48.0 °F 31% 30.09 in 10.0 mi SE 12.7 mph 24.2 mph N/A   Clear
2:53 PM 82.0 °F 48.0 °F 30% 30.06 in 10.0 mi SE 13.8 mph 20.7 mph N/A   Clear
3:53 PM 84.0 °F 50.0 °F 31% 30.04 in 10.0 mi ESE 16.1 mph - N/A   Clear
4:53 PM 82.9 °F 50.0 °F 32% 30.04 in 10.0 mi SE 18.4 mph 24.2 mph N/A   Clear
5:53 PM 81.0 °F 50.0 °F 34% 30.04 in 10.0 mi ESE 19.6 mph 26.5 mph N/A   Clear
6:53 PM 78.1 °F 50.0 °F 37% 30.05 in 10.0 mi ESE 21.9 mph 27.6 mph N/A   Clear
7:53 PM 73.9 °F 51.1 °F 45% 30.08 in 10.0 mi SE 16.1 mph 24.2 mph N/A   Clear
8:53 PM 72.0 °F 51.1 °F 48% 30.11 in 10.0 mi SE 16.1 mph 23.0 mph N/A   Clear
9:53 PM 70.0 °F 51.1 °F 51% 30.12 in 10.0 mi SE 18.4 mph 25.3 mph N/A   Clear
10:53 PM 66.9 °F 52.0 °F 59% 30.14 in 10.0 mi SE 13.8 mph 23.0 mph N/A   Clear
11:53 PM 64.9 °F 52.0 °F 63% 30.14 in 10.0 mi SE 13.8 mph - N/A   Clear